GOKTURK 1A (41875 NORAD) Tracking and Keplerian Element Data

This shows tracking and keplerian element data for the satellite.

Feedback or suggestion? Click here.




ElementValue
Catalog41875
NameGOKTURK 1A
Epoch Orbit10863
Epoch Day352.72108896
Epoch Year2018
RAAN244.7199
Inclination98.1509
Eccentricity0.000119
Argument of Perigee84.9006
Mean Anonmoly275.2339
Mean Motion14.62750481
Decay Rate4.1E-07
L11 41875U 16073A 18352.72108896 .00000041 00000-0 17302-4 0 9994
L22 41875 98.1509 244.7199 0001190 84.9006 275.2339 14.62750481108630

Live tracking and technical data element details for GOKTURK 1A (NORAD 41875). GOKTURK 1A can be tracked NOW for your location showing map with azimuth and elevation plus other details from your city location.

Track the satellite on the map from your city or location and see movement details for azimuth, elevation, latitude, longitude, range, height, and movement on the map or in text.







IsCatalogInMostPopularTable: catalog: 41875, numindb: 139
Update: records affected: 1



GetName: 41875 GOKTURK 1A

Hit Count: updated at: Wed, 19 Dec 2018 16:11:51 GMT